Welcome to the New NWS' Forecast!
Most changes are behind the scenes, but click here for differences you might notice.
Latest weather observations around

Duluth International Airport (KDLH)

Using English Units (Switch to International System of Units)
Date/ Time (CDT) Wind (mph) Vis. (mi) Weather Sky Cond. Temp (°F) Rel. Humidity Wind Chill (°F) Heat Index (°F) Pressure Precip. (in)
Air Dwpt 6 hour Altimeter (inHg) Sea level (inHg) 1 hr 3 hr 6 hr
Max Min
Sep 18 17:55 ESE 9 10 Cloudy OVC023 56 50     80%     30.04 30.06      
Sep 18 17:23 E 6 10 Cloudy OVC015 56 51     84%     30.04        
Sep 18 16:55 ESE 9 10 Cloudy OVC012 55 51     86%     30.04 30.06      
Sep 18 16:02 E 6 10 Cloudy OVC013 57 50     77%     30.04        
Sep 18 15:55 ENE 8 10 Mostly Cloudy BKN015 BKN020 57 50     77%     30.04 30.06      
Sep 18 14:55 E 11 10 Mostly Cloudy BKN015 BKN020 58 50     75%     30.01 30.03      
Sep 18 14:02 E 11 10 Mostly Cloudy FEW014 BKN024 61 52     72%     30.03        
Sep 18 13:55 E 13 10 Mostly Cloudy BKN011 BKN026 58 51     78%     30.03 30.04      
Sep 18 12:55 E 13 10 Cloudy BKN010 OVC026 58 51     78%     30.05 30.06     0
Sep 18 12:47 E 13 10 Cloudy BKN010 OVC026 57 51     81%     30.05        
Sep 18 11:33 E 14 10 Cloudy BKN007 OVC026 56 51     84%     30.05   0    
Sep 18 10:55 E 14 2 Light Drizzle and Fog/Mist BKN007 OVC010 55 51     86%     30.05 30.06 0    
Sep 18 10:51 E 11 2 Light Drizzle and Fog/Mist OVC007 55 52     88%     30.05   0    
Sep 18 10:38 E 14 3 Light Drizzle and Fog/Mist OVC006 55 51     86%     30.04   0    
Sep 18 09:55 ENE 10 2.5 Light Drizzle and Fog/Mist OVC005 54 51     90%     30.03 30.05 0 0  
Sep 18 09:01 ENE 10 4 Light Drizzle and Fog/Mist OVC005 54 51     90%     30.02   0    
Sep 18 08:55 ENE 14 1.25 Light Drizzle and Fog/Mist OVC004 54 51     90%     30.02 30.03 0    
Sep 18 08:28 E 13 1.25 Light Drizzle and Fog/Mist OVC004 54 51     90%     30.02   0    
Sep 18 08:10 E 11 1.25 Light Drizzle and Fog/Mist OVC005 54 51     90%     30.03   0    
Sep 18 08:03 E 10 2 Light Drizzle and Fog/Mist OVC005 54 51     90%     30.03   0    
Sep 18 07:55 E 10 3 Light Drizzle and Fog/Mist OVC005 54 51     90%     30.03 30.05 0    
Sep 18 06:55 E 10 10 Cloudy OVC006 55 51     86%     30 30.02      
Sep 18 05:55 E 8 10 Cloudy OVC007 55 51     86%     30.02 30.03      
Sep 18 05:06 E 10 10 Cloudy OVC008 55 51     86%     29.99        
Sep 18 04:55 E 9 10 Cloudy OVC010 55 51     86%     30 30.01      
Sep 18 04:17 E 9 10 Cloudy OVC010 55 51     86%     30.02        
Sep 18 04:06 ESE 9 10 Cloudy OVC009 55 51     86%     30.03        
Sep 18 03:55 ESE 10 10 Cloudy OVC010 56 51     84%     30.02 30.03      
Sep 18 03:12 ESE 14 10 Cloudy BKN011 OVC017 56 51     84%     30.01        
Sep 18 02:55 E 13 10 Cloudy OVC015 56 51     84%     30.01 30.02      
Sep 18 01:55 E 10 10 Cloudy OVC012 57 52     83%     30.01 30.02      
Sep 18 00:55 ESE 11 10 Cloudy BKN010 OVC017 58 54     87%     30.02 30.02      
Sep 18 00:52   10 Cloudy BKN010 OVC017 57 54     88%     30.02        
Sep 17 23:55 ESE 13 10 Mostly Cloudy FEW008 SCT014 BKN019 58 54     87%     30.01 30.02      
Sep 17 23:44 ESE 11 10 Mostly Cloudy FEW008 BKN019 57 53     87%     30.02        
Sep 17 22:55 E 9 10 Mostly Clear FEW017 56 51     84%     30.02 30.03      
Sep 17 21:55 E 9 10 Mostly Clear FEW016 56 50     80%     30.01 30.02      
Sep 17 20:55 NE 6 10 Mostly Clear FEW080 55 50     83%     29.99 30.01      
Sep 17 19:55 NE 9 10 Mostly Clear FEW080 57 51     81%     29.98 29.99      
Sep 17 18:55 NNE 9 10 Partly Cloudy SCT080 59 51     75%     29.98 29.99      
Sep 17 17:55 NNE 7 10 Partly Cloudy SCT080 61 52     72%     30 30.01      
Sep 17 16:55 NNW 7 10 Partly Cloudy SCT080 61 51     70%     30.03 30.03      
Sep 17 15:55 WNW 7 10 Partly Cloudy SCT080 61 51     70%     30.02 30.01      
Sep 17 14:55 NW 5 10 Partly Cloudy SCT080 62 50     65%     29.99 29.98      
Sep 17 13:55 N 8 10 Partly Cloudy SCT080 64 50     60%     29.97 29.96      
Sep 17 12:55 NNW 14 10 Partly Cloudy SCT080 64 49     58%     29.98 29.98      
Sep 17 11:55 N 9 10 Clear CLR 62 50     65%     29.95 29.94      
Sep 17 10:55 NNW 15 10 Mostly Clear FEW015 60 49     67%     29.95 29.95      
Sep 17 09:55 NW 11 10 Partly Cloudy SCT014 58 48     70%     29.94 29.94      
Sep 17 08:55 NW 15 10 Partly Cloudy SCT010 58 50     75%     29.93 29.93      
Sep 17 08:33 NW 16 10 Partly Cloudy SCT010 58 51     78%     29.92        
Sep 17 08:14 NW 16 10 Mostly Cloudy BKN010 57 50     77%     29.91        
Sep 17 07:55 NNW 15 10 Partly Cloudy SCT010 57 51     81%     29.91 29.91      
Sep 17 07:52 NNW 15 10 Partly Cloudy SCT010 57 52     82%     29.91        
Sep 17 06:55 NW 14 10 Mostly Cloudy BKN010 59 53     81%     29.89 29.88      
Sep 17 06:13 NW 15 10 Mostly Cloudy BKN010 60 55     83%     29.87        
Sep 17 05:55 NW 11 10 Partly Cloudy SCT011 61 56     83%     29.87 29.86      
Sep 17 05:44 NW 13 10 Partly Cloudy SCT011 62 56     80%     29.87        
Sep 17 05:12 NW 10 10 Mostly Cloudy BKN010 65 61     87%     29.86        
Sep 17 04:55 NW 10 10 Clear CLR 66 61     84%     29.86 29.84      
Sep 17 03:55 NW 10 10 Clear CLR 69 63     81%     29.84 29.83      
Sep 17 02:55 W 10 10 Clear CLR 70 62     76%     29.84 29.82      
Sep 17 01:55 WSW 10 10 Clear CLR 73 62     68%   73 29.82 29.8      
Sep 17 00:55 SW 15 10 Mostly Cloudy BKN070 74 62     66%   74 29.82 29.8      
Sep 16 23:55 SSW 11 10 Partly Cloudy SCT080 73 63     71%   73 29.83 29.81      
Sep 16 22:55 SSW 14 10 Clear CLR 73 63     71%   73 29.84 29.82      
Sep 16 21:55 SSW 11 10 Clear CLR 71 64     79%   72 29.84 29.84      
Sep 16 20:55 S 7 10 Clear CLR 70 64     81%     29.85 29.85      
Sep 16 19:55 S 9 10 Clear CLR 73 64     73%   73 29.85 29.84      
Sep 16 18:55 S 7 10 Clear CLR 75 65     71%   76 29.86 29.85      
Sep 16 17:55 S 11 10 Mostly Clear FEW040 79 66     65%   80 29.86 29.85      
Sep 16 16:55 S 13 10 Mostly Clear FEW040 80 67     64%   82 29.87 29.86      
Sep 16 15:55 S 10 10 Mostly Clear FEW040 78 67     69%   79 29.89 29.88      
Sep 16 14:55 S 10 10 Mostly Clear FEW004 FEW040 79 68     69%   80 29.92 29.91      
Sep 16 13:55 S 11 10 Mostly Clear FEW004 FEW060 78 68     71%   79 29.95 29.94      
Sep 16 12:55 S 10 10 Mostly Clear FEW004 FEW060 76 67     74%   77 29.98 29.97      
Sep 16 11:55 SSE 8 10 Mostly Clear FEW004 70 67     90%     30.01 30.01      
Sep 16 11:53 SSE 8 10 Mostly Clear FEW004 70 66     88%     30.01        
Sep 16 11:02 SE 9 0.5 Fog VV002 66 64     93%     30.03        
Sep 16 10:55 SE 9 0.25 Fog VV002 66 64     93%     30.03 30.03      
Sep 16 10:11 SE 10 0.12 Fog VV002 65 63     93%     30.04        
Sep 16 09:55 SE 9 0.06 Fog VV002 65 64     97%     30.05 30.05      
Sep 16 08:55 ESE 9 0.12 Fog VV002 64 63     96%     30.06 30.06      
Sep 16 07:55 SE 13 0.12 Fog VV002 63 61     93%     30.07 30.07      
Sep 16 06:55 ESE 11 0.12 Fog VV002 62 61     96%     30.08 30.09      
Sep 16 06:13 ESE 14 0.25 Fog VV002 62 61     96%     30.08        
Sep 16 05:55 ESE 14 0.5 Fog VV002 62 61     96%     30.09 30.09      
Sep 16 04:55 ESE 14 0.12 Fog VV002 62 61     96%     30.09 30.09      
Sep 16 03:55 ESE 16 0.12 Fog VV002 62 61     96%     30.1 30.1      
Sep 16 03:16   0.12 Fog VV002 62 60     93%     30.1        
Sep 16 02:55   0.12 Fog VV001 62 60     93%     30.11 30.11      
Sep 16 01:55 ESE 16 0.12 Fog VV001 62 60     93%     30.11 30.11      
Sep 16 01:33 ESE 16 0.12 Fog VV001 62 60     93%     30.12        
Sep 16 01:11 ESE 16 0.25 Fog VV002 62 60     93%     30.12        
Sep 16 00:55 ESE 15 0.5 Fog VV002 62 60     93%     30.13 30.13     0
Sep 15 23:55 E 11 0.5 Fog VV002 62 60     93%     30.14 30.14      
Sep 15 22:55   0.5 Fog VV002 62 60     93%     30.12 30.12      
Sep 15 22:02   0.5 Fog VV002 62 60     93%     30.12        
Sep 15 21:55   2.5 Fog/Mist OVC002 62 60     93%     30.12 30.12 0 0  
Sep 15 20:55 E 17 2.5 Light Drizzle and Fog/Mist OVC002 62 60     93%     30.14 30.14 0    
Sep 15 19:55 E 13 2.5 Light Drizzle and Fog/Mist OVC003 63 61     93%     30.12 30.12 0    
Sep 15 18:55 E 11 2.5 Fog/Mist OVC003 64 61     90%     30.13 30.13      
Sep 15 17:55 E 13 2.5 Fog/Mist OVC003 64 61     90%     30.14 30.14      
Sep 15 17:39 E 13 10 Cloudy OVC004 65 61     87%     30.14        
Sep 15 17:06 E 13 10 Cloudy BKN006 OVC009 66 62     87%     30.14        
Sep 15 16:55 E 13 10 Cloudy OVC010 66 62     87%     30.14 30.14      
Sep 15 16:18 ENE 15 10 Cloudy OVC005 66 61     84%     30.15        
Sep 15 15:55 E 15 10 Cloudy OVC004 65 61     87%     30.15 30.14      
Sep 15 14:55 E 9 4 Fog/Mist OVC003 66 63     90%     30.15 30.14      
Sep 15 13:55 E 9 3 Fog/Mist OVC003 65 62     90%     30.16 30.15      
Sep 15 12:55 E 11 3 Cloudy OVC002 65 63     93%     30.16 30.16      
Sep 15 11:55 E 10 10 Cloudy OVC003 65 64     97%     30.16 30.16      
Sep 15 11:24 E 11 10 Cloudy OVC003 66 64     93%     30.16        
Sep 15 11:02 E 11 2 Fog/Mist OVC002 66 65     96%     30.16        
Sep 15 10:55 E 9 1 Fog/Mist OVC002 66 64     93%     30.16 30.16      
Sep 15 10:29 ESE 9 1 Fog/Mist VV002 66 65     96%     30.16        
Sep 15 09:55 ESE 9 0.25 Fog VV002 67 65     93%     30.15 30.14      
Sep 15 09:53 ESE 9 0.25 Fog VV002 66 64     94%     30.15        
Sep 15 08:55 ESE 3 0.25 Fog VV002 66 65     96%     30.14 30.13      
Sep 15 08:53 ESE 3 0.25 Fog VV002 66 64     94%     30.14        
Sep 15 08:04 ENE 5 0.25 Fog VV003 66 64     93%     30.12        
Sep 15 07:55 E 3 0.25 Fog VV002 66 64     93%     30.12 30.11      
Sep 15 06:55 E 5 0.12 Fog VV002 65 63     93%     30.1 30.09     2
Sep 15 06:17 E 5 0.12 Fog VV002 65 64     97%     30.11        
Sep 15 06:02 E 6 0.5 Fog VV002 65 64     97%     30.1        
Sep 15 05:55 ESE 10 0.25 Fog VV002 65 64     97%     30.11 30.09 0    
Sep 15 05:31 ESE 10 0.25 Fog VV002 65 64     97%     30.11   0    
Sep 15 05:15 SE 10 0.25 Fog VV002 66 65     96%     30.11   0    
Sep 15 05:11 SE 11 0.5 Fog VV002 66 64     93%     30.11   0    
Sep 15 05:00 SE 13 1.75 Light Rain and Fog/Mist BKN002 OVC090 66 64     93%     30.1   0    
Sep 15 04:55 SE 14 9 Light Rain BKN002 OVC095 66 64     93%     30.09 30.08 1    
Sep 15 04:50 SE 14 10 Light Rain BKN002 BKN075 OVC095 66 64     94%     30.09   1    
Sep 15 04:34 SE 13 10 Thunderstorms and Rain BKN002 OVC035 66 64     93%     30.1   1    
Sep 15 04:23 SE 16 4 Thunderstorms and Rain and Fog/Mist BKN002 OVC035 66 64     93%     30.11   1    
Sep 15 04:19 SE 16 1.5 Thunderstorms and Rain and Fog/Mist BKN002 OVC035 67 64     90%     30.11   1    
Sep 15 04:08   0.75 Thunderstorms and Rain and Fog/Mist BKN002 OVC035 67 66     97%         0    
Sep 15 03:55 N 6 2 Thunderstorms and Rain and Fog/Mist BKN002 OVC035 67 66     97%     30.13 30.12 0 1  
Sep 15 03:50 6 1 Thunderstorms and Rain and Fog/Mist BKN002 OVC035 66 66     100%     30.12   0    
Sep 15 03:47 SSW 5 0.75 Fog/Mist VV002 67 65     93%     30.1   0    
Sep 15 03:45 SSE 10 0.5 Thunderstorms and Rain and Fog FEW050 BKN090 OVC110 67 65     93%     30.08   0    
Sep 15 03:37 SE 14 0.5 Thunderstorms and Rain and Fog FEW050 BKN090 OVC110 67 65     93%     30.06   0    
Sep 15 03:31 SE 15 1.5 Thunderstorms and Rain and Fog/Mist FEW050 BKN090 OVC110 67 65     93%     30.06   0    
Sep 15 03:02 SSE 10 9 Thunderstorms and Rain FEW050 BKN090 OVC110 68 65     90%     30.09   0    
Sep 15 02:55 SE 11 8 Thunderstorms and Rain BKN009 OVC032 68 65     90%     30.08 30.07 1    
Sep 15 02:37 S 10 8 Thunderstorms and Rain BKN009 OVC032 68 65     90%     30.09   1    
Sep 15 02:29   2.5 Thunderstorms and Heavy Rain and Fog/Mist BKN009 OVC032 68 65     90%     30.07   1    
Sep 15 02:15   2 Thunderstorms and Heavy Rain and Fog/Mist BKN009 OVC032 67 65     93%     30.11   1    
Sep 15 02:05   0.75 Thunderstorms and Heavy Rain and Fog/Mist BKN009 OVC032 68 64     87%     30.1   0    
Sep 15 01:59   2.5 Thunderstorms and Rain and Fog/Mist BKN009 OVC032 70 66     87%     30.1   0    
Sep 15 01:55 E 7 10 Thunderstorms and Rain SCT016 BKN021 OVC095 70 66     87%     30.06 30.04 0    
Sep 15 01:02 E 13 10 Thunderstorms SCT016 BKN021 OVC095 71 66     84%   72 30.06        
Sep 15 00:55 E 13 10 Thunderstorms BKN032 71 67     87%   72 30.06 30.04 0   0
Sep 15 00:24 E 13 10 Thunderstorms BKN032 71 67     87%   72 30.07        
Sep 15 00:20 ESE 11 10 Mostly Clear FEW032 71 67     87%   72 30.07        
Sep 14 23:55   10 Partly Cloudy FEW007 SCT025 71 68     90%   72 30.08 30.06 0    
Sep 14 23:44 E 14 10 Mostly Cloudy FEW007 SCT014 BKN026 71 68     90%   72 30.08   0    
Sep 14 23:35 E 14 10 Light Rain SCT007 BKN014 BKN026 71 67     87%   72 30.09   0    
Sep 14 23:27 E 11 10 Mostly Cloudy FEW008 SCT015 BKN026 71 67     87%   72 30.08        
Sep 14 22:55 E 7 10 Mostly Cloudy BKN022 71 68     90%   72 30.09 30.08 0    
Sep 14 22:51 ESE 6 10 Mostly Cloudy BKN022 72 68     88%   73 30.09   0    
Sep 14 22:00 SE 11 10 Light Rain SCT018 BKN047 OVC055 73 69     87%   74 30.08   0    
Sep 14 21:55 E 13 10 Thunderstorms and Rain BKN018 BKN055 OVC110 73 69     87%   74 30.09 30.08 0 0  
Sep 14 21:06 ENE 5 10 Thunderstorms OVC021 75 69     82%   76 30.1        
Sep 14 20:55 ENE 7 10 Cloudy OVC021 75 70     84%   76 30.08 30.06      
Sep 14 20:12 NE 7 10 Cloudy BKN023 BKN028 OVC047 75 70     84%   76 30.08        
Sep 14 19:55 N 6 10 Mostly Cloudy BKN037 BKN048 75 69     82%   76 30.09 30.07      
Sep 14 18:55 Calm 10 Cloudy BKN037 OVC048 77 69     77%   78 30.08 30.06      
Sep 14 17:55 S 3 10 Mostly Cloudy BKN090 78 69     74%   79 30.08 30.07      
Sep 14 17:02 S 6 10 Mostly Cloudy BKN090 78 68     71%   79 30.08        
Sep 14 16:55 SSW 7 10 Mostly Cloudy BKN023 BKN090 78 68     71%   79 30.08 30.06      
Sep 14 16:02 S 9 10 Mostly Cloudy BKN028 78 68     71%   79 30.08        
Sep 14 15:55 S 8 10 Mostly Cloudy FEW020 SCT026 BKN085 78 69     74%   79 30.08 30.06      
Sep 14 14:55 S 8 10 Cloudy SCT021 SCT026 OVC085 79 68     69%   80 30.07 30.06      
Sep 14 13:55 Calm 10 Cloudy BKN025 OVC031 79 68     69%   80 30.08 30.06      
May 13 21:55 WSW 9 10 Mostly Cloudy BKN120 65 42     43%     29.87 29.88      
May 13 09:55 W 10 10 Cloudy OVC100 61 29     30%     30.02 30.04      
May 13 07:55 WNW 8 10 Mostly Clear FEW120 53 30     41%     30.03 30.05      
May 12 10:55 E 6 10 Clear CLR 57 21     24%     30.17 30.2      
Notice The following observation data may not be complete
May 12 07:55 ENE 5 10 Clear CLR   24      %     30.15 30.19      
May 12 03:55 N 3 10 Clear CLR 30 21     69% 27   30.11 30.15      
Jun 11 10:55   4 Rain and Fog/Mist OVC095 59 57     93%     29.74   0    
Jun 11 06:55 Calm 10 Partly Cloudy SCT120 61 57     87%     29.77 29.76      
Notice The following observation data may not be complete
Jun 10 05:21   10 Mostly Cloudy SCT008 SCT042 BKN075   60      %     29.51   1    
Jun 08 23:55 ENE 5 10 Mostly Clear FEW100 57 53     87%     29.88 29.88      
Jun 08 03:55 Calm 10 Mostly Clear FEW120 56 52     87%     29.9 29.9      
Jun 07 21:24 ESE 7 10 Thunderstorms SCT050 BKN080 BKN120 66 46     48%     29.97        
Jun 07 13:55 S 10 10 Mostly Clear FEW120 79 51     38%   78 30.05 30.05      
Jun 06 01:55 Calm 10 Clear CLR 45 39     80%     30.12 30.14      
Jun 05 17:55 E 13 10 Clear CLR 68 46     45%     30.06 30.07      
Jun 05 14:55 E 13 10 Mostly Clear FEW045 69 49     49%     30.07 30.08